Salt Flat, TX

9:33 AM CDT on April 22, 2018 (GMT -0500)
Guadalupe Pass | | Change Station

Elev 5453 ft 31.83 °N, 104.80 °W | Updated 42 minutes ago

Partly Cloudy
Partly Cloudy
43 °F
Feels Like 33 °F
N
25
Wind Variable Wind from ENE

Today
High -- | Low -- °F
--% Chance of Precip.
Yesterday
High -- | Low -- °F
Precip. -- in
Pressure 30.09 in
Visibility 8.0 miles
Clouds Clear
Windchill 33 °F
Dew Point 37 °F
Humidity 80%
Rainfall 0.00 in
Snow Depth Not available.
7:23 AM 8:34 PM
Waxing Crescent, 47% visible
METAR KGDP 221351Z AUTO 06022KT 8SM CLR 06/03 A3020 RMK AO2 PK WND 06029/1302 SLP190 T00610028 $
Pressure 30.09 in
Visibility 8.0 miles
Clouds Clear
Windchill 33 °F
Dew Point 37 °F
Humidity 80%
Rainfall 0.00 in
Snow Depth Not available.
7:23 AM 8:34 PM
Waxing Crescent, 47% visible
METAR KGDP 221351Z AUTO 06022KT 8SM CLR 06/03 A3020 RMK AO2 PK WND 06029/1302 SLP190 T00610028 $

Get Severe Weather Alerts

Thanks for signing up!

Be on the lookout for a verification email in your inbox.

You'll start receiving the daily forecast at 6 AM.

×

10-Day Weather Forecast

Almanac

Astronomy

Apr. 22, 2018 Rise Set
Actual Time
Civil Twilight
Nautical Twilight
Astronomical Twilight
Moon
Length of Visible Light
Length of Day
Tomorrow will be .
, % of the Moon is Illuminated

Today's Extremes

State Highs State Lows

Community

WunderPhotos

Category 6

Welcome to Category 6. This is the collective home for Weather Underground's featured writeups by Dr. Jeff Masters (right), Bob Henson (left), Chris Burt, and other regular contributors.

Nearby

Air Quality

  Air Quality AQ Index Pollutant
Not available.

Snow Depth

Station Depth Elevation

Earthquake Activity

City Distance Mag. Time & Date
Minimum magnitude displayed is 2.5.

Coastal Water Temperatures

Place Temperature

Stations

Nearby Weather Stations

Station Location Temp. Windchill Dew Point Humidity Wind Precip. Elev Updated Type
                   

Watches & Warnings

There are currently no watches in effect.